Location: *
(49.8044°N, 4.0558°E)
Time: 23:31:15
(UTC+00:00)

Resurs 01 Rocket - Pass Details

Date: 09 April 2020
Orbit: 635 x 643 km, 98.0° (Epoch: 23 May)

Event Time Altitude Azimuth Distance (km) Brightness Sun altitude
Exits shadow 20:55:15 15° 209° (SSW) 1,707 3.6 -21.4°
Maximum altitude 20:58:16 31° 265° (W) 1,118 3.2 -21.8°
Drops below altitude 10° 21:02:13 10° 328° (NNW) 2,038 5.3 -22.2°
Sets 21:04:39 0° 338° (NNW) 2,953 6.2 -22.5°
